Weather History for Cork, Ireland

Change the Weather History Date:

Thursday, January 24, 2013

  Actual Average Record
Temperature  
Mean Temperature 38 °F -  
Max Temperature 42 °F 46 °F 54 °F (2014)
Min Temperature 34 °F 37 °F 32 °F (2005)
Degree Days  
Heating Degree Days 27    
Moisture  
Dew Point 38 °F    
Average Humidity 95    
Maximum Humidity 100    
Minimum Humidity 87    
Precipitation  
Precipitation 0.03 in 0.16 in - ()
Sea Level Pressure  
Sea Level Pressure 29.90 in    
Wind  
Wind Speed 7 mph ()    
Max Wind Speed 16 mph    
Max Gust Speed 28 mph    
Visibility 6.0 miles    
Events Rain    
Averages and records for this station are not official NWS values.
T = Trace of Precipitation, MM = Missing Value Source: Averaged Metar Reports

Daily Weather History Graph

Daily Weather History Graph

Search for Another Location

Airport:

Trip Planner

Search our weather history database for the weather conditions in past years. The results will help you decide how hot, cold, wet, or windy it might be!

Date:

Astronomy

Jan. 24, 2013 Rise Set
Actual Time 8:24 AM GMT 5:08 PM GMT
Civil Twilight 7:46 AM GMT 5:45 PM GMT
Nautical Twilight 7:05 AM GMT 6:27 PM GMT
Astronomical Twilight 6:25 AM GMT 7:06 PM GMT
Moon 2:53 PM GMT (1/24) 6:17 AM GMT (1/24)
Length of Visible Light 9h 58m
Length of Day
8h 43m
Waxing Gibbous, 93% of the Moon is Illuminated
Jan 24
Waxing Gibbous
Jan 27
Full
Feb 3
Last Quarter
Feb 10
New
Feb 17
First Quarter

Hourly Weather History & Observations

Time (GMT) Temp. Windchill Dew Point Humidity Pressure Visibility Wind Dir Wind Speed Gust Speed Precip Events Conditions
12:00 AM 33.8 °F 27.0 °F 32.0 °F 93% 29.77 in 6.2 mi East 8.1 mph - N/A   Mostly Cloudy
12:30 AM 35.6 °F 28.0 °F 33.8 °F 93% 29.77 in 6.2 mi East 10.4 mph - N/A   Mostly Cloudy
1:00 AM 35.6 °F 28.6 °F 33.8 °F 93% 29.77 in 6.2 mi East 9.2 mph - N/A   Mostly Cloudy
1:30 AM 35.6 °F 29.2 °F 33.8 °F 93% 29.80 in 6.2 mi ENE 8.1 mph - N/A   Mostly Cloudy
2:00 AM 35.6 °F - 33.8 °F 93% 29.80 in 6.2 mi ENE 2.3 mph - N/A   Mostly Cloudy
2:30 AM 35.6 °F 31.7 °F 33.8 °F 93% 29.80 in 6.2 mi ENE 4.6 mph - N/A   Mostly Cloudy
3:00 AM 35.6 °F 31.7 °F 33.8 °F 93% 29.83 in 6.2 mi ENE 4.6 mph - N/A   Mostly Cloudy
3:30 AM 35.6 °F 29.9 °F 33.8 °F 93% 29.83 in 6.2 mi ENE 6.9 mph - N/A   Mostly Cloudy
4:00 AM 35.6 °F 29.2 °F 33.8 °F 93% 29.83 in 6.2 mi East 8.1 mph - N/A   Mostly Cloudy
4:30 AM 35.6 °F 29.9 °F 33.8 °F 93% 29.83 in 6.2 mi East 6.9 mph - N/A   Mostly Cloudy
5:00 AM 35.6 °F 30.7 °F 33.8 °F 93% 29.86 in 6.2 mi East 5.8 mph - N/A   Mostly Cloudy
5:30 AM 35.6 °F 30.7 °F 33.8 °F 93% 29.86 in 6.2 mi East 5.8 mph - N/A   Mostly Cloudy
6:00 AM 35 °F - 34 °F 95% 29.93 in 10 mi East 6.7 mph - -   Mostly Cloudy
6:00 AM 35.6 °F 30.7 °F 33.8 °F 93% 29.86 in 6.2 mi East 5.8 mph - N/A   Mostly Cloudy
6:30 AM 35.6 °F 30.7 °F 33.8 °F 93% 29.89 in 6.2 mi ENE 5.8 mph - N/A   Mostly Cloudy
7:00 AM 35.6 °F 30.7 °F 33.8 °F 93% 29.89 in 6.2 mi East 5.8 mph - N/A   Mostly Cloudy
7:30 AM 35.6 °F 29.9 °F 35.6 °F 100% 29.89 in 6.2 mi East 6.9 mph - N/A   Mostly Cloudy
8:00 AM 35.6 °F 30.7 °F 35.6 °F 100% 29.95 in 6.2 mi East 5.8 mph - N/A   Mostly Cloudy
8:30 AM 35.6 °F 29.9 °F 35.6 °F 100% 29.95 in 4.3 mi East 6.9 mph - N/A   Mostly Cloudy
9:00 AM 35.6 °F 29.9 °F 35.6 °F 100% 29.95 in 4.3 mi East 6.9 mph - N/A   Mostly Cloudy
9:30 AM 35.6 °F 29.2 °F 35.6 °F 100% 29.92 in 4.3 mi ESE 8.1 mph - N/A   Mostly Cloudy
10:00 AM 37.4 °F 31.4 °F 37.4 °F 100% 29.92 in 3.1 mi ESE 8.1 mph - N/A   Mostly Cloudy
10:30 AM 39.2 °F 33.6 °F 37.4 °F 93% 29.95 in 3.1 mi ESE 8.1 mph - N/A   Mostly Cloudy
11:00 AM 39.2 °F 34.2 °F 39.2 °F 100% 29.95 in 4.3 mi ESE 6.9 mph - N/A   Mostly Cloudy
11:30 AM 39.2 °F 35.0 °F 39.2 °F 100% 29.95 in 5.0 mi ESE 5.8 mph - N/A   Mostly Cloudy
12:00 PM 40 °F - 40 °F 98% 29.99 in 4 mi SE 6.7 mph - - Rain Light Rain
12:00 PM 39.2 °F 35.0 °F 39.2 °F 100% 29.98 in 4.3 mi SE 5.8 mph - N/A Rain Light Rain
12:30 PM 41.0 °F 38.0 °F 39.2 °F 93% 29.95 in 5.6 mi SE 4.6 mph - N/A Rain Light Rain
1:00 PM 41.0 °F 35.8 °F 41.0 °F 100% 29.95 in 6.2 mi SSE 8.1 mph - N/A   Mostly Cloudy
1:30 PM 41.0 °F 34.7 °F 39.2 °F 93% 29.95 in 6.2 mi SE 10.4 mph - N/A   Mostly Cloudy
2:00 PM 41.0 °F 35.2 °F 39.2 °F 93% 29.95 in 6.2 mi SSE 9.2 mph - N/A   Mostly Cloudy
2:30 PM 41.0 °F 35.2 °F 39.2 °F 93% 29.95 in 6.2 mi SE 9.2 mph - N/A   Mostly Cloudy
3:00 PM 41.0 °F 35.2 °F 39.2 °F 93% 29.95 in 6.2 mi SE 9.2 mph - N/A Rain Light Rain
3:30 PM 41.0 °F 34.3 °F 37.4 °F 87% 29.95 in 6.2 mi SE 11.5 mph - N/A   Mostly Cloudy
4:00 PM 42.8 °F 36.6 °F 39.2 °F 87% 29.95 in 6.2 mi SSE 11.5 mph - N/A   Overcast
4:30 PM 42.8 °F 37.0 °F 39.2 °F 87% 29.92 in 6.2 mi SSE 10.4 mph - N/A   Overcast
5:00 PM 42.8 °F 36.6 °F 41.0 °F 93% 29.95 in 6.2 mi SSE 11.5 mph - N/A   Light Drizzle
5:30 PM 42.8 °F 38.0 °F 41.0 °F 93% 29.95 in 6.2 mi SSE 8.1 mph - N/A Rain Light Rain
6:00 PM 42 °F - 42 °F 99% 29.97 in 12 mi South 8.9 mph - - Rain Light Rain
6:00 PM 42.8 °F 38.0 °F 42.8 °F 100% 29.95 in 6.2 mi South 8.1 mph - N/A   Mostly Cloudy
6:30 PM 42.8 °F 38.0 °F 41.0 °F 93% 29.95 in 6.2 mi South 8.1 mph - N/A   Mostly Cloudy
7:00 PM 42.8 °F 37.0 °F 41.0 °F 93% 29.92 in 6.2 mi SSE 10.4 mph - N/A   Mostly Cloudy
7:30 PM 42.8 °F 37.0 °F 42.8 °F 100% 29.92 in 6.2 mi South 10.4 mph - N/A Rain Light Rain
8:00 PM 42.8 °F 37.0 °F 41.0 °F 93% 29.92 in 6.2 mi SSE 10.4 mph - N/A Rain Light Rain
8:30 PM 42.8 °F 37.0 °F 42.8 °F 100% 29.89 in 6.2 mi SSE 10.4 mph - N/A Rain Light Rain
9:00 PM 42.8 °F 35.8 °F 42.8 °F 100% 29.89 in 6.2 mi SSE 13.8 mph - N/A Rain Light Rain
9:30 PM 42.8 °F 35.4 °F 42.8 °F 100% 29.89 in 6.2 mi SSE 15.0 mph - N/A   Mostly Cloudy
10:00 PM 42.8 °F 35.1 °F 41.0 °F 93% 29.86 in 6.2 mi SSE 16.1 mph - N/A   Mostly Cloudy
10:30 PM 42.8 °F 35.1 °F 41.0 °F 93% 29.86 in - SSE 16.1 mph 27.6 mph N/A   Mostly Cloudy
11:00 PM 42.8 °F 36.2 °F 41.0 °F 93% 29.86 in 6.2 mi South 12.7 mph - N/A   Mostly Cloudy
11:30 PM 42.8 °F 35.4 °F 41.0 °F 93% 29.86 in 6.2 mi SSE 15.0 mph - N/A   Mostly Cloudy